[[{"header":{"parameterUnit":"m.s-1","parameterCategory":1,"la1":30.2991,"la2":30.254,"lo1":-89.0895,"lo2":-89.0444,"dy":0.0017,"dx":0.0017,"nx":28,"ny":28,"refTime":"2025-08-09T21:00:00:Z","depth":0,"parameterNumber":2,"parameterNumberName":"U-component_of_WINDS"},"data":[0,0,0,0,0,0,0,0,0,0,0,0,0,0,0,0,0,0,0,0,0,0,0,0,0,0,0,0,0,0,0,0,0,0,0,0,0,0,0,0,0,0,0,0,0,0,0,0,0,0,0,0,0,0,0,0,0,0,-3.5704,-3.5704,0,-3.5718,-3.5718,-3.5719,-3.5627,-3.5625,-3.5622,-3.562,-3.5637,-3.564,-3.5643,0,0,0,0,0,0,0,0,0,0,0,0,0,-3.5602,-3.5604,-3.5704,-3.5704,-3.5704,-3.5718,-3.5718,-3.5719,-3.5628,-3.5625,-3.5621,-3.5619,-3.5636,-3.564,-3.5643,0,0,0,0,0,0,0,0,0,0,0,0,0,-3.5634,-3.5605,-3.5704,-3.5661,-3.5657,-3.5718,-3.5718,-3.5719,-3.5628,-3.5625,-3.5621,-3.5617,-3.5635,-3.5639,-3.5643,-3.5748,0,0,-3.5657,-3.5658,0,0,0,0,0,0,0,0,-3.5633,-3.5638,-3.5667,-3.5664,-3.566,-3.5667,-3.5689,-3.5729,-3.5629,-3.5639,-3.562,-3.5615,-3.565,-3.5653,-3.5664,-3.5749,-3.5749,-3.5657,-3.566,-3.5661,-3.5663,0,0,0,0,0,0,0,-3.5631,-3.5637,-3.571,-3.5667,-3.5663,-3.5642,-3.5642,-3.5696,-3.5667,-3.5638,-3.5632,-3.5634,-3.5648,-3.5661,-3.5664,-3.575,-3.5657,-3.5661,-3.5663,-3.5665,-3.5924,-3.5928,0,0,0,0,0,0,-3.5634,-3.5636,-3.5709,-3.571,-3.5636,-3.5647,-3.5647,-3.5669,-3.5666,-3.5661,-3.5638,-3.563,-3.5655,-3.5659,-3.5664,-3.5789,-3.5661,-3.5665,-3.5668,-3.592,-3.5925,-3.593,0,0,0,0,0,0,-3.5632,-3.5641,-3.5709,-3.5671,-3.5678,-3.5653,-3.5678,-3.5671,-3.5684,-3.5665,-3.566,-3.5656,-3.5652,-3.5658,-3.5728,-3.5788,-3.5667,-3.5671,-3.5915,-3.5921,-3.5927,-3.6037,0,0,0,0,0,0,-3.5629,-3.5641,-3.5679,-3.5673,-3.5681,-3.5771,-3.5681,-3.5674,-3.5691,-3.5681,-3.5681,-3.5677,-3.565,-3.5723,-3.5733,-3.5792,-3.5675,-3.5909,-3.5918,-3.5925,-3.6028,-3.6047,-3.6063,0,0,0,0,0,-3.5626,-3.5709,-3.5682,-3.5691,-3.5728,-3.5775,-3.5779,-3.5745,-3.5696,-3.5735,-3.5724,-3.5677,-3.578,-3.573,-3.5741,-3.5803,-3.5905,-3.5915,-3.5925,-3.6021,-3.6043,-3.6062,0,0,0,0,0,0,-3.5723,-3.5708,-3.5677,-3.576,-3.577,-3.5759,-3.5807,-3.577,-3.5794,-3.5783,-3.5741,-3.5741,-3.582,-3.5818,-3.5763,-3.5905,-3.5834,-3.5847,-3.5904,-3.5925,-3.5942,-3.5941,-3.5678,0,0,0,0,0,-3.5755,-3.5793,-3.5778,-3.5853,-3.5859,-3.5833,-3.5852,-3.5825,-3.5834,-3.5837,-3.5831,-3.5842,-3.5877,-3.59,-3.5931,-3.6028,-3.6028,-3.6075,-3.6092,-3.6107,-3.6118,-3.6172,-3.6194,-3.5961,-3.5961,-3.5961,0,0,-3.582,-3.5816,-3.5843,-3.5873,-3.5877,-3.592,-3.5837,-3.5885,-3.5917,-3.5845,-3.5911,-3.5907,-3.5916,-3.6001,-3.6038,-3.6002,-3.6183,-3.6119,-3.613,-3.6134,-3.6184,-3.6206,-3.6226,-3.5968,-3.5967,-3.5966,0,0,-3.596,-3.596,-3.6024,-3.603,-3.6038,-3.602,-3.6036,-3.6032,-3.6027,-3.6092,-3.604,-3.6078,-3.6138,-3.6148,-3.6161,-3.6309,-3.6268,-3.632,-3.641,-3.6463,-3.6481,-3.6498,-3.6553,-3.6573,-3.6331,-3.6332,-3.6332,0,-3.604,-3.6101,-3.6062,-3.6114,-3.613,-3.6067,-3.6133,-3.6141,-3.6159,-3.6172,-3.6132,-3.6208,-3.621,-3.6297,-3.6334,-3.6345,-3.6364,-3.632,-3.6482,-3.6497,-3.6512,-3.6564,-3.6585,-3.6338,-3.6337,-3.6337,-3.6336,0,-3.62,-3.6244,-3.6295,-3.6314,-3.6335,-3.6394,-3.6366,-3.6393,-3.6365,-3.6353,-3.6422,-3.6422,-3.6453,-3.6472,-3.6444,-3.6557,-3.6535,-3.6489,-3.6417,-3.6541,-3.659,-3.6609,-3.6347,-3.6345,-3.6343,-3.6341,0,0,-3.6401,-3.64,-3.6419,-3.6428,-3.6433,-3.6467,-3.6524,-3.6554,-3.658,-3.6595,-3.6643,-3.6697,-3.6655,-3.667,-3.6644,-3.669,-3.6811,-3.6639,-3.6639,-3.6673,-3.6938,-3.6974,-3.6998,-3.6784,-3.6787,-3.679,-3.6938,0,-3.654,-3.6637,-3.6605,-3.6704,-3.6745,-3.6688,-3.6738,-3.6748,-3.6738,-3.6773,-3.6763,-3.6803,-3.6743,-3.6752,-3.6796,-3.6787,-3.6864,-3.6776,-3.6831,-3.6833,-3.6832,-3.7022,-3.706,-3.7199,-3.6957,-3.696,-3.6962,0,-3.6715,-3.6737,-3.6841,-3.6841,-3.6857,-3.6903,-3.693,-3.6963,-3.6974,-3.6964,-3.6983,-3.6947,-3.7006,-3.6934,-3.7016,-3.6956,-3.6977,-3.6977,-3.6982,-3.6986,-3.6906,-3.7034,-3.7243,-3.7265,-3.6991,-3.6989,-3.6986,0,-3.6854,-3.691,-3.698,-3.6989,-3.6991,-3.7025,-3.7028,-3.7035,-3.7056,-3.708,-3.7094,-3.7125,-3.7142,-3.7168,-3.7143,-3.7092,-3.723,-3.7154,-3.7225,-3.7226,-3.7257,-3.7256,-3.7474,-3.7268,-3.7268,-3.7268,-3.7267,0,-3.7013,-3.7079,-3.7043,-3.7086,-3.7159,-3.7123,-3.7197,-3.7193,-3.7201,-3.7244,-3.7195,-3.7237,-3.7201,-3.724,-3.7221,-3.7294,-3.7301,-3.7297,-3.7291,-3.7302,-3.7303,-3.7316,-3.7306,-3.7273,-3.7272,-3.7271,-3.727,0,-3.7181,-3.7159,-3.7232,-3.7228,-3.7229,-3.7284,-3.7281,-3.7322,-3.731,-3.7365,-3.7376,-3.7358,-3.7402,-3.7379,-3.7425,-3.7412,-3.7507,-3.7487,-3.7503,-3.7498,-3.7571,-3.7566,-3.7806,-3.7837,-3.761,-3.7613,-3.7614,0,-3.7284,-3.7334,-3.7337,-3.7362,-3.7368,-3.7409,-3.743,-3.7398,-3.7423,-3.7441,-3.7481,-3.752,-3.755,-3.7624,-3.7616,-3.7651,-3.7633,-3.7715,-3.7638,-3.7649,-3.7637,-3.7636,-3.7642,-3.7731,-3.7734,-3.7736,-3.7738,0,-3.7472,-3.7459,-3.7492,-3.7522,-3.755,-3.7572,-3.759,-3.7614,-3.7582,-3.7613,-3.7658,-3.7681,-3.7729,-3.777,-3.7801,-3.7806,-3.7768,-3.7762,-3.7781,-3.7793,-3.7801,-3.78,-3.7547,-3.7757,-3.7755,-3.7754,-3.7752,-3.7752,-3.7612,-3.7654,-3.7664,-3.7703,-3.7713,-3.7732,-3.7772,-3.7765,-3.7801,-3.7837,-3.7815,-3.7869,-3.7881,-3.792,-3.793,-3.7972,-3.794,-3.7966,-3.7973,-3.7981,-3.7992,-3.7794,-3.7978,-3.7977,-3.7976,-3.7976,-3.7976,0,-3.7798,-3.7802,-3.7838,-3.7866,-3.7898,-3.7859,-3.7878,-3.7908,-3.7955,-3.7969,-3.8,-3.8053,-3.8094,-3.809,-3.8127,-3.8163,-3.8147,-3.8174,-3.8172,-3.8174,-3.8017,-3.7998,-3.8187,-3.8187,-3.8186,-3.8186,-3.8186,-3.8186,-3.7899,-3.797,-3.7959,-3.8036,-3.8039,-3.809,-3.8105,-3.8124,-3.8136,-3.8197,-3.823,-3.8227,-3.8235,-3.8274,-3.831,-3.8308,-3.8325,-3.836,-3.8352,-3.8206,-3.8185,-3.8165,-3.8147,-3.8363,-3.8364,-3.8505,-3.8507,-3.8508]},{"header":{"parameterUnit":"m.s-1","parameterCategory":1,"la1":30.2991,"la2":30.254,"lo1":-89.0895,"lo2":-89.0444,"dy":0.0017,"dx":0.0017,"nx":28,"ny":28,"refTime":"2025-08-09T21:00:00:Z","depth":0,"parameterNumber":3,"parameterNumberName":"V-component_of_WINDS"},"data":[0,0,0,0,0,0,0,0,0,0,0,0,0,0,0,0,0,0,0,0,0,0,0,0,0,0,0,0,0,0,0,0,0,0,0,0,0,0,0,0,0,0,0,0,0,0,0,0,0,0,0,0,0,0,0,0,0,0,-1.4094,-1.4093,0,-1.4063,-1.4063,-1.4062,-1.3994,-1.3993,-1.3992,-1.399,-1.3962,-1.3963,-1.3963,0,0,0,0,0,0,0,0,0,0,0,0,0,-1.4095,-1.4095,-1.4094,-1.4093,-1.4093,-1.4063,-1.4063,-1.4062,-1.3995,-1.3993,-1.3991,-1.399,-1.3962,-1.3963,-1.3963,0,0,0,0,0,0,0,0,0,0,0,0,0,-1.4082,-1.4095,-1.4094,-1.4055,-1.4052,-1.4063,-1.4063,-1.4062,-1.3995,-1.3993,-1.3991,-1.3989,-1.3962,-1.3963,-1.3964,-1.4011,0,0,-1.3966,-1.3966,0,0,0,0,0,0,0,0,-1.4083,-1.4083,-1.4061,-1.4058,-1.4054,-1.403,-1.4053,-1.4045,-1.3995,-1.4017,-1.399,-1.3988,-1.3987,-1.3985,-1.3984,-1.401,-1.4008,-1.3966,-1.3967,-1.3967,-1.3967,0,0,0,0,0,0,0,-1.4084,-1.4083,-1.4082,-1.4061,-1.4057,-1.404,-1.4036,-1.4051,-1.4014,-1.4015,-1.401,-1.4007,-1.3984,-1.3984,-1.3983,-1.4008,-1.3966,-1.3967,-1.3967,-1.3968,-1.4069,-1.4071,0,0,0,0,0,0,-1.409,-1.4085,-1.4083,-1.4081,-1.4064,-1.4042,-1.4037,-1.404,-1.4014,-1.4008,-1.4009,-1.4004,-1.3983,-1.3982,-1.3982,-1.4036,-1.3967,-1.3968,-1.3968,-1.4067,-1.407,-1.4072,0,0,0,0,0,0,-1.4091,-1.4091,-1.4084,-1.4081,-1.4079,-1.4044,-1.4048,-1.4041,-1.404,-1.4009,-1.4002,-1.4015,-1.3982,-1.3981,-1.4004,-1.4034,-1.3968,-1.3969,-1.4065,-1.4068,-1.4071,-1.4144,0,0,0,0,0,0,-1.4091,-1.4091,-1.4109,-1.4082,-1.4079,-1.4106,-1.405,-1.4042,-1.4041,-1.4035,-1.4013,-1.4008,-1.398,-1.4003,-1.4005,-1.4034,-1.397,-1.4062,-1.4066,-1.407,-1.4139,-1.4149,-1.4158,0,0,0,0,0,-1.4091,-1.4131,-1.411,-1.411,-1.4101,-1.4108,-1.4106,-1.4073,-1.4044,-1.4061,-1.4041,-1.4008,-1.403,-1.4006,-1.4007,-1.4037,-1.406,-1.4065,-1.407,-1.4134,-1.4147,-1.4158,0,0,0,0,0,0,-1.4164,-1.4127,-1.4103,-1.4136,-1.4125,-1.4096,-1.4118,-1.4088,-1.4086,-1.408,-1.404,-1.4035,-1.4064,-1.4052,-1.4026,-1.4081,-1.4039,-1.4045,-1.4088,-1.41,-1.4109,-1.4113,-1.397,0,0,0,0,0,-1.4184,-1.4192,-1.416,-1.4192,-1.4187,-1.4153,-1.4155,-1.413,-1.4118,-1.4114,-1.4095,-1.4086,-1.409,-1.4094,-1.4096,-1.4135,-1.413,-1.4157,-1.4166,-1.4174,-1.418,-1.42,-1.4211,-1.4088,-1.4088,-1.4088,0,0,-1.4225,-1.4206,-1.4214,-1.4206,-1.4195,-1.4205,-1.415,-1.4164,-1.4171,-1.4116,-1.4136,-1.4122,-1.4108,-1.414,-1.4153,-1.4131,-1.4213,-1.4181,-1.4188,-1.4189,-1.4206,-1.4218,-1.4228,-1.4092,-1.4091,-1.4091,0,0,-1.4306,-1.4292,-1.4317,-1.4306,-1.4289,-1.4266,-1.4272,-1.4247,-1.4235,-1.4254,-1.4213,-1.4221,-1.4229,-1.4221,-1.4218,-1.4293,-1.4263,-1.4294,-1.4347,-1.4366,-1.4376,-1.4384,-1.4412,-1.4422,-1.43,-1.43,-1.43,0,-1.436,-1.4373,-1.4334,-1.4349,-1.4347,-1.4295,-1.432,-1.4312,-1.4298,-1.4297,-1.4273,-1.4281,-1.4268,-1.4297,-1.4315,-1.4314,-1.432,-1.4298,-1.4377,-1.4385,-1.4393,-1.4418,-1.4429,-1.4304,-1.4304,-1.4303,-1.4303,0,-1.4441,-1.445,-1.4472,-1.4457,-1.4457,-1.4478,-1.4442,-1.4446,-1.442,-1.4399,-1.4419,-1.4401,-1.4399,-1.4403,-1.4379,-1.4428,-1.4415,-1.4385,-1.4342,-1.4409,-1.4433,-1.4442,-1.431,-1.4309,-1.4307,-1.4306,0,0,-1.457,-1.4531,-1.454,-1.4532,-1.4509,-1.4515,-1.4533,-1.4529,-1.4534,-1.4524,-1.4538,-1.4545,-1.4516,-1.4513,-1.4486,-1.4503,-1.4564,-1.447,-1.4469,-1.4489,-1.4617,-1.4642,-1.4654,-1.4542,-1.4544,-1.4545,-1.4619,0,-1.4646,-1.4673,-1.4637,-1.4673,-1.4681,-1.4631,-1.4646,-1.4633,-1.4614,-1.4618,-1.4596,-1.4602,-1.4563,-1.456,-1.4575,-1.4554,-1.4589,-1.4547,-1.4556,-1.4557,-1.4563,-1.4666,-1.4692,-1.4762,-1.4627,-1.4629,-1.463,0,-1.474,-1.4734,-1.477,-1.4742,-1.4744,-1.4758,-1.4751,-1.4755,-1.474,-1.4724,-1.4719,-1.4686,-1.4702,-1.4659,-1.4679,-1.4652,-1.4653,-1.4643,-1.4644,-1.4646,-1.4599,-1.4671,-1.4784,-1.4795,-1.4644,-1.4643,-1.4642,0,-1.4832,-1.4832,-1.4853,-1.4848,-1.4816,-1.4828,-1.4815,-1.4797,-1.4796,-1.479,-1.4789,-1.4785,-1.4783,-1.4781,-1.4748,-1.472,-1.4773,-1.4727,-1.4761,-1.4762,-1.4777,-1.4777,-1.4893,-1.4775,-1.4775,-1.4774,-1.4774,0,-1.4922,-1.4947,-1.4894,-1.4908,-1.4933,-1.489,-1.4917,-1.4899,-1.4883,-1.4892,-1.4848,-1.4858,-1.4813,-1.4818,-1.4792,-1.4814,-1.4813,-1.4801,-1.4795,-1.4806,-1.4808,-1.4808,-1.4803,-1.4777,-1.4777,-1.4776,-1.4776,0,-1.5031,-1.4996,-1.5016,-1.4983,-1.4976,-1.4996,-1.4968,-1.4979,-1.4955,-1.4967,-1.4968,-1.4931,-1.4935,-1.4901,-1.4898,-1.4881,-1.4914,-1.4898,-1.492,-1.4915,-1.4952,-1.4949,-1.5073,-1.5087,-1.4959,-1.496,-1.4961,0,-1.5092,-1.5109,-1.5077,-1.5079,-1.5069,-1.5073,-1.5072,-1.503,-1.503,-1.5012,-1.5026,-1.5025,-1.5022,-1.503,-1.5003,-1.5001,-1.4985,-1.5028,-1.4985,-1.4996,-1.4987,-1.4987,-1.4989,-1.5039,-1.504,-1.5042,-1.5043,0,-1.5204,-1.5185,-1.5185,-1.5177,-1.5176,-1.5169,-1.5159,-1.5163,-1.5118,-1.512,-1.5122,-1.512,-1.5116,-1.5116,-1.5108,-1.5095,-1.5062,-1.5056,-1.5064,-1.5077,-1.5089,-1.5084,-1.4946,-1.5054,-1.5053,-1.5052,-1.5051,-1.5051,-1.5291,-1.5304,-1.5283,-1.5283,-1.5271,-1.5262,-1.527,-1.5246,-1.5247,-1.524,-1.5214,-1.5221,-1.5203,-1.5188,-1.5178,-1.5182,-1.5161,-1.5173,-1.5176,-1.518,-1.5187,-1.5087,-1.5181,-1.518,-1.518,-1.5179,-1.5179,0,-1.5403,-1.5386,-1.5386,-1.5372,-1.5372,-1.5338,-1.5324,-1.5327,-1.5333,-1.5318,-1.5315,-1.5317,-1.5316,-1.5289,-1.5284,-1.5293,-1.5278,-1.5294,-1.5294,-1.5291,-1.5206,-1.52,-1.5306,-1.5306,-1.5306,-1.5306,-1.5306,-1.5306,-1.546,-1.548,-1.5459,-1.5471,-1.5454,-1.5459,-1.5454,-1.5445,-1.5433,-1.5437,-1.5435,-1.5416,-1.5396,-1.539,-1.5387,-1.5379,-1.538,-1.5402,-1.5389,-1.531,-1.5297,-1.5286,-1.528,-1.5402,-1.5402,-1.5474,-1.5475,-1.5475]}]]